Temperature
8 8 8 9 9 9 9 9 9 9 9 10 10 10 10 10 10 10 10 10 10 10 10 11 11 11 11 11 11 11 11 11 11 11 11 11 12 12 12 12 12 12 12
7 7 8 8 8 8 8 8 8 9 9 9 9 9 9 9 9 9 9 10 10 10 10 10 10 10 10 11 11 11 11 11 11 11 11 11 11 11 11 11 12 12 12
7 7 7 7 7 7 7 8 8 8 8 8 8 9 9 9 9 9 9 9 9 9 9 10 10 10 10 10 10 10 10 10 10 11 11 11 11 11 11 11 11 11 11
6 6 6 6 7 7 7 7 7 7 7 8 8 8 8 8 8 8 8 9 9 9 9 9 9 9 9 10 10 10 10 10 10 10 10 10 10 10 11 11 11 11 11
5 5 5 6 6 6 6 6 6 6 7 7 7 7 7 8 8 8 8 8 8 8 8 8 9 9 9 9 9 9 9 9 9 10 10 10 10 10 10 10 10 10 10
4 4 4 5 5 5 5 5 5 6 6 6 6 6 7 7 7 7 7 7 7 7 8 8 8 8 8 8 9 9 9 9 9 9 9 9 9 9 9 10 10 10 10
4 4 4 4 4 4 4 4 4 5 5 5 5 5 6 6 6 6 6 6 6 7 7 7 7 7 8 8 8 8 8 8 8 9 9 9 9 9 9 9 9 9 9
3 3 3 3 3 3 3 3 3 4 4 4 4 4 4 4 5 5 5 5 5 6 6 6 6 6 6 7 7 7 7 7 8 8 8 8 8 8 8 8 9 9 9
2 2 2 2 2 2 2 2 3 3 3 3 3 2 3 3 3 3 4 4 5 5 5 5 5 6 6 6 6 6 6 7 7 7 7 7 7 8 8 8 8 8 9
1 1 1 1 1 1 1 2 2 2 1 2 2 2 2 2 1 2 3 3 4 4 4 4 4 5 5 5 5 5 5 6 6 6 6 7 7 7 7 7 7 8 8
0 0 1 0 1 1 1 1 1 1 1 1 1 1 1 1 1 0 1 2 2 3 3 3 4 4 4 4 4 4 5 5 5 5 5 6 6 6 6 7 7 7 7
-0 -0 -0 -0 -0 -0 -0 0 0 0 0 0 0 0 -0 -0 -0 -0 0 0 1 1 2 2 2 3 3 3 3 4 4 4 4 4 5 5 5 5 6 6 6 6 7
-1 -1 -1 -1 -1 -1 -1 -1 -1 -1 -1 -1 -1 -1 -1 -1 -1 -1 -1 -1 -1 0 0 1 1 2 2 2 3 3 3 3 4 4 4 4 4 5 5 5 5 6 6
-2 -2 -2 -2 -2 -2 -2 -2 -1 -1 -1 -1 -1 -1 -1 -1 -1 -1 -1 -2 -2 -1 -0 0 1 1 1 1 2 2 2 2 3 3 3 3 4 4 4 4 5 5 5
-3 -3 -3 -3 -3 -2 -2 -2 -2 -2 -2 -2 -2 -2 -2 -2 -2 -2 -2 -2 -2 -2 -1 -1 -0 0 1 1 1 1 1 1 2 2 2 3 3 3 3 4 4 4 4
-3 -3 -3 -3 -3 -3 -3 -3 -3 -3 -3 -3 -3 -3 -3 -2 -3 -2 -2 -3 -3 -3 -2 -2 -1 -1 -1 -0 -0 0 0 1 1 1 2 2 2 2 3 3 3 3 3
-4 -4 -4 -4 -4 -4 -4 -4 -4 -4 -4 -3 -3 -3 -3 -3 -3 -3 -3 -3 -3 -3 -3 -2 -2 -1 -1 -1 -1 -0 -0 -0 0 1 1 1 1 1 2 2 2 2 3
-5 -5 -5 -5 -4 -4 -4 -4 -4 -4 -4 -4 -4 -4 -4 -4 -4 -4 -4 -3 -3 -3 -3 -3 -3 -2 -2 -2 -1 -1 -1 -1 -0 -0 0 0 1 1 1 1 1 2 2
-5 -5 -5 -5 -5 -5 -5 -5 -5 -5 -5 -5 -5 -5 -4 -4 -4 -4 -4 -4 -4 -4 -4 -4 -3 -3 -2 -2 -2 -2 -1 -1 -1 -1 -0 -0 0 0 1 1 1 1 2
-6 -6 -6 -6 -5 -5 -5 -5 -5 -5 -6 -5 -5 -5 -5 -5 -5 -5 -5 -5 -4 -4 -4 -4 -4 -3 -3 -3 -3 -2 -2 -2 -1 -1 -1 -1 -1 -0 0 0 0 1 1
-6 -6 -6 -6 -6 -6 -6 -6 -6 -6 -6 -6 -6 -6 -5 -5 -5 -5 -5 -5 -5 -5 -5 -4 -4 -4 -3 -3 -3 -2 -2 -2 -2 -2 -1 -1 -1 -1 -1 -0 0 0 0
-7 -7 -7 -7 -6 -6 -6 -6 -6 -7 -7 -6 -6 -6 -6 -6 -6 -6 -5 -5 -5 -5 -5 -5 -4 -4 -4 -3 -3 -3 -3 -3 -3 -2 -2 -2 -2 -1 -1 -1 -0 -0 -0
-7 -7 -7 -7 -7 -7 -7 -7 -7 -7 -7 -7 -7 -7 -6 -6 -6 -6 -6 -6 -6 -5 -5 -5 -5 -4 -4 -3 -3 -3 -3 -3 -3 -3 -3 -2 -2 -2 -2 -1 -1 -1 -1
-8 -8 -8 -8 -8 -7 -7 -7 -7 -7 -7 -7 -7 -7 -7 -7 -6 -6 -6 -6 -6 -6 -5 -5 -5 -4 -4 -4 -4 -3 -3 -3 -3 -3 -3 -3 -2 -2 -2 -2 -2 -2 -1
-8 -8 -8 -8 -8 -8 -8 -7 -8 -8 -8 -8 -8 -7 -7 -7 -7 -7 -6 -6 -6 -6 -6 -5 -5 -5 -4 -4 -4 -4 -4 -4 -4 -3 -3 -3 -3 -3 -3 -2 -2 -2 -2
-9 -9 -9 -9 -9 -8 -8 -8 -8 -9 -9 -9 -8 -8 -8 -7 -7 -7 -7 -7 -6 -6 -6 -6 -5 -5 -5 -5 -4 -4 -4 -4 -4 -4 -4 -4 -3 -3 -3 -3 -3 -3 -2
Wind_Speed
6 6 6 7 7 7 7 7 6 6 5 4 4 4 3 3 3 3 3 5 7 7 7 6 5 4 2 1 1 1 0 1 1 1 1 1 1 2 3 3 4 6 6
7 6 6 6 7 7 7 6 6 5 4 3 3 4 4 3 3 3 3 3 5 7 7 6 6 5 4 3 2 2 2 2 2 2 2 2 2 2 2 2 4 5 6
7 6 6 6 7 7 7 6 6 5 4 3 3 3 3 3 3 3 3 3 3 4 6 6 6 5 4 4 3 2 3 3 3 4 4 4 3 3 4 3 3 5 6
7 7 5 6 7 6 6 6 6 4 4 3 3 3 3 2 3 2 2 2 3 4 4 5 5 5 5 4 4 3 3 2 3 4 5 5 5 5 5 5 5 5 6
7 7 6 6 6 6 6 5 5 5 4 4 3 3 2 2 2 2 2 2 3 4 4 4 4 5 5 4 4 4 4 3 3 4 5 6 6 6 6 7 7 7 7
7 6 6 6 6 5 5 5 5 5 4 4 4 3 3 3 2 2 2 2 3 4 4 4 4 4 4 4 5 5 5 5 5 5 5 6 7 7 7 8 8 9 9
8 6 5 6 5 4 4 5 5 5 4 4 3 3 2 2 2 2 2 3 3 4 4 4 4 4 4 4 4 5 6 6 6 6 6 7 7 8 9 9 10 10 11
8 7 6 5 5 4 4 5 5 4 4 4 3 2 2 2 1 2 3 3 3 4 4 4 4 4 5 4 4 5 6 7 7 7 7 8 8 9 10 11 11 11 12
8 7 6 5 5 5 4 4 4 4 4 4 3 2 2 2 4 3 3 3 4 4 4 5 5 5 5 5 5 5 6 7 8 8 9 9 9 9 9 11 12 11 11
7 7 7 6 5 5 4 4 4 4 4 4 3 3 3 3 3 3 4 4 5 5 6 5 6 6 6 5 5 6 7 8 9 9 9 10 11 11 10 10 10 11 10
6 6 6 6 5 5 5 5 5 4 4 5 5 4 4 4 6 5 6 6 6 6 6 6 7 7 6 7 6 6 8 9 10 11 11 11 11 11 11 11 10 10 10
5 6 6 6 6 5 5 5 5 6 5 6 6 5 5 5 5 5 7 8 8 7 7 7 7 7 7 7 7 8 9 10 11 12 12 12 12 12 12 12 11 10 11
5 6 7 6 6 6 7 6 6 6 7 7 7 6 6 7 7 7 7 8 9 8 7 7 7 8 8 8 8 9 10 11 12 12 13 13 12 12 13 13 12 11 11
5 7 7 7 8 8 7 7 6 6 7 7 8 8 7 7 7 7 7 7 8 8 8 9 7 8 8 8 9 10 11 12 12 12 13 13 13 13 13 13 13 12 12
6 7 8 8 8 8 8 7 6 7 7 7 8 9 8 7 7 7 7 8 8 9 10 9 7 8 9 9 10 11 12 12 13 14 14 14 13 13 13 13 13 13 13
7 8 8 8 8 8 8 7 7 7 8 8 8 9 9 8 8 8 8 8 9 10 11 9 9 9 10 11 12 12 13 14 15 15 14 14 14 14 14 14 14 14 14
8 8 8 8 8 8 9 8 8 8 9 9 9 10 10 10 9 8 8 9 9 9 12 11 10 9 11 11 11 12 12 12 12 14 14 14 14 14 14 15 15 15 15
8 8 8 8 8 8 9 9 9 9 9 10 11 11 11 9 11 10 9 10 10 10 11 13 11 10 11 11 11 12 11 11 11 13 14 15 15 15 15 15 15 15 15
8 9 9 9 9 9 9 9 9 9 10 11 11 11 11 11 11 10 10 11 10 10 10 11 11 10 10 9 11 11 11 9 10 12 13 14 14 14 14 14 14 14 14
9 9 9 9 10 10 10 10 10 10 11 11 11 11 11 11 12 12 10 11 10 11 11 11 11 10 9 9 9 9 9 8 8 8 10 11 12 14 14 15 15 14 14
9 9 9 10 10 9 9 10 10 11 11 12 12 11 12 13 14 13 11 11 11 10 10 11 11 10 9 8 9 8 9 8 9 7 7 8 8 8 10 13 14 14 14
9 9 10 10 10 9 12 14 13 11 11 12 12 12 12 13 14 16 17 17 16 14 12 12 11 12 13 11 10 9 9 9 9 6 7 8 7 8 9 10 12 13 14
9 10 10 10 11 11 14 15 15 12 12 12 12 12 10 10 13 12 14 16 16 18 18 15 14 14 13 12 11 11 11 10 10 7 7 9 8 9 9 10 12 14 14
9 9 10 11 11 11 14 15 16 13 12 12 12 12 12 12 12 13 13 13 14 14 15 13 13 14 13 12 13 12 11 11 10 8 8 9 8 8 8 8 11 13 14
9 9 10 11 11 12 14 14 15 10 10 12 12 12 12 12 14 15 13 13 14 13 14 17 18 18 18 18 15 10 9 9 9 8 7 7 7 7 7 7 9 12 13
9 9 10 10 11 11 13 14 14 9 10 10 10 11 13 14 15 15 12 12 13 13 12 12 13 15 15 15 16 12 10 10 8 7 7 6 6 6 6 6 6 7 9
Wind_Direction
15 15 17 14 10 5 4 2 2 2 3 6 2 356 350 349 355 2 17 26 17 12 8 1 359 4 13 35 59 86 132 109 147 173 199 174 157 168 178 186 178 184 185
15 10 12 13 10 4 358 354 355 350 354 353 351 347 340 342 347 354 351 7 22 17 9 358 357 355 350 332 292 250 223 214 213 214 227 219 207 209 206 212 211 199 198
14 11 11 11 4 357 355 352 353 351 351 345 335 334 331 330 334 341 347 352 358 10 10 1 352 348 345 342 326 283 242 226 224 227 230 231 226 229 227 230 234 224 214
14 11 12 8 358 357 357 356 355 345 348 340 328 323 321 321 316 325 332 341 347 349 358 4 355 349 344 338 329 320 291 250 233 232 230 232 232 234 235 236 238 236 226
14 12 10 6 359 0 360 356 351 346 341 341 326 312 307 299 302 304 314 322 336 336 336 346 344 343 341 340 338 331 323 294 271 253 242 237 236 239 241 238 238 237 232
11 10 10 7 4 2 360 356 346 348 343 337 321 311 300 287 285 294 304 316 324 327 329 330 326 328 336 336 335 332 324 317 295 274 263 255 245 244 245 244 242 237 234
7 7 5 3 1 0 353 349 343 343 350 344 326 322 301 276 270 282 313 312 315 321 322 323 323 324 320 327 329 330 324 317 310 293 279 271 262 254 250 248 248 245 239
3 359 358 354 352 345 343 348 349 341 341 347 332 311 305 283 303 314 301 302 311 321 318 320 320 323 315 311 324 324 318 315 307 300 289 283 275 270 261 254 252 251 245
360 357 348 345 343 339 332 336 336 334 324 326 328 306 287 286 314 278 288 300 315 317 312 311 309 307 304 306 308 309 313 309 305 301 290 282 281 276 273 264 257 253 249
355 352 347 340 336 332 327 325 320 309 301 304 299 286 279 280 271 285 276 285 301 305 303 302 296 291 290 294 295 302 304 302 300 297 295 291 282 277 273 274 269 259 254
348 348 343 337 331 325 321 320 311 300 288 287 289 284 278 271 254 255 271 281 293 290 294 297 293 284 280 282 281 291 295 292 291 291 289 288 288 282 277 276 277 270 259
336 341 335 329 323 319 313 310 304 298 284 276 278 271 267 259 264 265 268 274 279 285 289 284 282 281 274 274 277 287 285 284 283 284 284 285 285 284 280 278 275 275 269
324 328 326 320 317 311 309 303 294 291 286 275 274 269 265 262 264 266 270 275 280 284 279 274 274 279 271 270 272 278 276 275 277 279 280 281 283 283 283 278 273 270 273
311 314 314 310 308 307 302 300 291 285 285 277 275 272 267 265 263 259 263 275 278 277 273 274 274 272 272 270 272 273 272 268 271 275 278 278 279 280 279 279 276 272 268
303 305 304 303 301 302 298 295 286 281 282 279 276 274 266 265 266 263 258 255 262 271 274 275 274 270 278 273 272 270 271 268 267 270 273 274 274 273 272 272 273 272 268
300 299 302 302 300 296 295 288 286 280 277 277 277 276 267 264 263 263 259 255 256 262 268 268 274 277 277 280 273 269 268 269 264 263 266 267 268 267 266 265 264 265 263
297 296 298 298 297 296 294 285 281 284 278 276 275 274 269 266 263 261 261 257 257 259 265 272 270 271 269 272 276 268 266 263 260 257 260 263 264 264 264 262 261 261 261
293 293 291 290 289 289 290 286 280 280 280 278 275 273 270 267 264 261 259 257 258 260 263 271 273 271 268 266 270 267 264 260 260 257 256 260 261 260 260 258 259 258 257
291 291 289 288 288 289 289 286 282 281 281 280 278 274 273 267 264 263 261 259 259 261 262 265 270 270 268 264 269 266 262 259 260 258 255 255 255 256 256 256 257 256 254
290 290 288 288 287 287 286 286 282 281 281 280 278 276 275 270 267 266 263 261 261 261 261 262 266 267 266 265 264 262 260 258 262 262 257 255 254 254 254 254 253 252 252
288 289 288 287 286 285 284 287 287 284 283 282 279 276 274 273 272 267 264 263 263 261 261 263 264 267 266 264 261 261 259 261 264 264 259 255 253 253 252 250 247 246 245
289 288 286 285 285 283 286 288 289 288 286 283 282 281 279 274 272 269 266 265 263 261 261 264 264 262 264 264 263 261 259 259 267 259 259 263 257 257 252 246 243 245 246
289 287 286 285 284 285 289 289 290 288 284 281 281 281 279 277 276 272 269 267 265 263 260 261 263 263 265 268 266 261 257 260 264 259 260 265 260 258 253 245 243 242 244
288 287 286 285 286 287 290 291 292 287 281 280 279 280 279 278 274 273 270 268 265 263 261 258 261 266 265 264 262 259 263 268 269 259 250 260 262 262 260 248 243 241 243
289 288 287 286 286 290 292 293 292 287 282 281 282 280 277 277 277 277 273 268 269 268 267 264 266 268 269 267 264 260 254 253 260 263 254 257 263 268 265 259 247 241 241
289 290 288 287 286 289 292 293 292 286 284 284 284 281 275 274 278 277 274 271 269 270 271 271 268 268 268 266 258 247 244 245 254 263 251 247 256 264 269 263 252 244 243
Height
1542 1541 1541 1541 1540 1540 1540 1539 1539 1539 1539 1539 1539 1539 1539 1539 1539 1539 1538 1538 1537 1537 1537 1537 1537 1536 1537 1537 1537 1537 1538 1538 1539 1539 1540 1540 1540 1541 1541 1542 1542 1542 1543
1541 1540 1540 1539 1539 1538 1538 1537 1537 1537 1537 1537 1537 1537 1537 1537 1537 1537 1536 1536 1535 1535 1535 1535 1535 1535 1535 1535 1535 1535 1535 1536 1536 1537 1538 1538 1538 1539 1539 1540 1540 1541 1541
1540 1539 1538 1537 1537 1536 1536 1535 1535 1535 1534 1534 1534 1534 1534 1534 1534 1534 1534 1534 1533 1533 1533 1533 1532 1532 1532 1533 1533 1533 1533 1533 1534 1535 1535 1536 1536 1537 1537 1537 1538 1538 1539
1538 1537 1536 1535 1535 1534 1534 1533 1533 1532 1531 1531 1531 1531 1531 1531 1531 1531 1531 1531 1531 1530 1530 1530 1530 1530 1530 1530 1530 1530 1531 1531 1531 1532 1532 1533 1534 1534 1534 1535 1535 1536 1536
1536 1535 1534 1533 1532 1532 1531 1531 1530 1529 1529 1528 1528 1528 1528 1528 1528 1528 1528 1528 1528 1528 1527 1527 1527 1527 1527 1527 1527 1527 1528 1528 1528 1529 1529 1530 1530 1531 1531 1532 1532 1533 1533
1534 1533 1532 1531 1530 1530 1529 1528 1528 1527 1526 1525 1525 1525 1525 1525 1525 1525 1525 1525 1525 1525 1525 1524 1524 1524 1523 1523 1524 1524 1524 1525 1525 1526 1526 1527 1527 1528 1528 1528 1529 1529 1530
1531 1531 1530 1529 1528 1527 1526 1526 1525 1524 1524 1523 1522 1521 1521 1522 1522 1522 1522 1522 1522 1522 1522 1521 1521 1520 1520 1520 1520 1521 1521 1521 1521 1522 1523 1523 1523 1524 1524 1525 1525 1526 1526
1529 1528 1527 1526 1525 1525 1524 1523 1522 1521 1521 1521 1520 1519 1519 1520 1519 1519 1519 1519 1519 1519 1518 1518 1517 1517 1516 1516 1516 1516 1516 1517 1517 1518 1518 1519 1519 1520 1520 1521 1521 1522 1522
1526 1525 1524 1524 1522 1522 1521 1520 1519 1519 1518 1518 1518 1519 1518 1516 1515 1515 1515 1515 1515 1515 1514 1514 1513 1513 1513 1512 1512 1512 1512 1513 1513 1513 1514 1514 1515 1515 1516 1516 1517 1517 1518
1524 1523 1521 1520 1519 1519 1518 1517 1516 1516 1516 1515 1515 1515 1516 1515 1514 1511 1511 1511 1511 1510 1510 1510 1509 1509 1508 1508 1507 1507 1507 1508 1508 1509 1509 1509 1510 1510 1511 1511 1512 1512 1513
1521 1520 1518 1517 1516 1515 1514 1513 1513 1512 1512 1512 1511 1511 1511 1511 1511 1509 1507 1507 1506 1506 1505 1505 1504 1504 1504 1503 1503 1503 1503 1503 1503 1503 1504 1504 1504 1505 1505 1506 1506 1507 1508
1518 1517 1515 1514 1513 1512 1511 1509 1509 1508 1508 1508 1507 1507 1507 1507 1507 1506 1503 1501 1501 1500 1500 1500 1499 1499 1499 1498 1498 1498 1498 1497 1497 1498 1498 1498 1499 1499 1499 1500 1500 1501 1502
1514 1513 1511 1510 1509 1508 1507 1506 1505 1504 1503 1503 1503 1502 1502 1502 1502 1501 1500 1497 1496 1495 1495 1494 1494 1494 1493 1493 1493 1492 1492 1492 1492 1492 1492 1493 1493 1493 1493 1494 1494 1495 1496
1511 1509 1508 1506 1505 1504 1503 1502 1500 1499 1498 1498 1497 1497 1497 1497 1497 1496 1496 1495 1492 1490 1490 1489 1489 1489 1488 1488 1487 1486 1486 1486 1486 1486 1486 1486 1487 1487 1487 1488 1488 1489 1490
1508 1506 1504 1503 1501 1499 1498 1497 1495 1494 1493 1493 1492 1492 1492 1491 1491 1491 1491 1490 1490 1486 1483 1483 1483 1483 1483 1482 1481 1481 1480 1479 1479 1479 1479 1480 1480 1480 1481 1481 1482 1483 1483
1504 1502 1500 1498 1497 1495 1493 1492 1491 1489 1489 1488 1487 1487 1486 1485 1485 1485 1485 1485 1484 1483 1479 1476 1477 1477 1476 1476 1476 1475 1474 1473 1473 1473 1473 1473 1473 1473 1474 1475 1475 1476 1477
1499 1497 1496 1494 1492 1490 1488 1487 1486 1484 1483 1482 1481 1481 1480 1479 1479 1479 1479 1478 1478 1477 1474 1471 1471 1471 1470 1470 1469 1469 1468 1467 1466 1466 1466 1466 1466 1467 1467 1468 1468 1469 1470
1495 1493 1491 1489 1487 1486 1484 1482 1480 1479 1478 1477 1475 1474 1473 1473 1473 1472 1472 1471 1471 1471 1469 1466 1464 1465 1464 1464 1463 1462 1461 1461 1460 1460 1460 1460 1460 1460 1460 1461 1461 1462 1463
1490 1489 1486 1484 1482 1481 1479 1477 1475 1473 1472 1471 1469 1468 1467 1467 1466 1466 1465 1465 1464 1464 1463 1461 1458 1458 1458 1457 1457 1456 1455 1454 1454 1454 1453 1453 1453 1453 1453 1454 1454 1455 1456
1486 1483 1481 1479 1477 1475 1474 1472 1469 1467 1466 1464 1463 1461 1460 1460 1459 1458 1458 1458 1458 1458 1457 1456 1453 1452 1451 1451 1451 1449 1448 1448 1447 1447 1447 1447 1446 1446 1446 1447 1447 1448 1449
1481 1478 1476 1474 1472 1470 1468 1466 1464 1461 1460 1458 1456 1455 1453 1452 1452 1451 1451 1451 1451 1451 1450 1449 1448 1446 1445 1445 1444 1443 1442 1441 1441 1441 1440 1440 1440 1439 1439 1440 1440 1441 1442
1476 1473 1470 1468 1466 1464 1462 1460 1458 1455 1453 1451 1450 1448 1446 1445 1444 1444 1443 1444 1444 1444 1443 1443 1441 1440 1438 1439 1438 1437 1436 1436 1434 1435 1435 1434 1434 1433 1433 1433 1433 1434 1435
1470 1468 1465 1463 1460 1458 1456 1454 1452 1450 1448 1445 1443 1441 1439 1437 1437 1436 1436 1436 1436 1436 1437 1436 1434 1433 1432 1432 1432 1431 1430 1429 1428 1428 1429 1427 1427 1426 1426 1426 1426 1427 1428
1465 1463 1460 1457 1455 1452 1450 1448 1446 1444 1441 1439 1437 1435 1432 1431 1430 1430 1429 1428 1428 1428 1429 1428 1427 1426 1426 1425 1425 1424 1423 1423 1422 1422 1423 1421 1421 1420 1420 1420 1420 1421 1421
1460 1457 1455 1452 1449 1446 1444 1442 1440 1437 1435 1432 1430 1428 1427 1425 1424 1424 1423 1422 1421 1421 1421 1421 1420 1418 1417 1418 1417 1417 1416 1416 1414 1414 1416 1416 1414 1414 1414 1413 1414 1414 1415
1454 1452 1449 1446 1443 1441 1438 1436 1435 1432 1429 1427 1424 1422 1421 1419 1418 1418 1417 1416 1414 1413 1413 1412 1411 1410 1409 1409 1409 1409 1409 1408 1407 1407 1408 1409 1408 1409 1407 1407 1407 1408 1408